Time,TemperatureF,DewpointF,PressureIn,WindDirection,WindDirectionDegrees,WindSpeedMPH,WindSpeedGustMPH,Humidity,HourlyPrecipIn,Conditions,Clouds,dailyrainin,SoftwareType,DateUTC
2013-01-21 00:03:00,39.6,36.0,30.16,NNE,26,5.0,9.0,88,0.00,,,0.00,weatherlink.com 1.10,2013-01-21 08:03:00,
2013-01-21 00:18:00,39.4,36.0,30.16,NNE,26,1.0,9.0,88,0.00,,,0.00,weatherlink.com 1.10,2013-01-21 08:18:00,
2013-01-21 00:33:00,38.7,36.0,30.17,NE,40,0.0,4.0,89,0.00,,,0.00,weatherlink.com 1.10,2013-01-21 08:33:00,
2013-01-21 00:49:00,38.7,36.0,30.16,NNE,20,6.0,7.0,89,0.00,,,0.00,weatherlink.com 1.10,2013-01-21 08:49:00,
2013-01-21 01:04:00,38.8,36.0,30.15,NNE,32,4.0,10.0,88,0.00,,,0.00,weatherlink.com 1.10,2013-01-21 09:04:00,
2013-01-21 01:19:00,38.5,35.0,30.14,NNE,25,5.0,11.0,88,0.00,,,0.00,weatherlink.com 1.10,2013-01-21 09:19:00,
2013-01-21 01:34:00,37.9,35.0,30.14,NNE,23,7.0,9.0,89,0.00,,,0.00,weatherlink.com 1.10,2013-01-21 09:34:00,
2013-01-21 01:49:00,38.0,35.0,30.13,NNE,24,7.0,13.0,89,0.00,,,0.00,weatherlink.com 1.10,2013-01-21 09:49:00,
2013-01-21 02:04:00,38.4,35.0,30.13,NNE,28,1.0,8.0,88,0.00,,,0.00,weatherlink.com 1.10,2013-01-21 10:04:00,
2013-01-21 02:19:00,40.6,36.0,30.13,NNE,30,7.0,11.0,82,0.00,,,0.00,weatherlink.com 1.10,2013-01-21 10:19:00,
2013-01-21 02:34:00,39.2,35.0,30.13,NNE,26,4.0,12.0,84,0.00,,,0.00,weatherlink.com 1.10,2013-01-21 10:34:00,
2013-01-21 02:49:00,40.1,35.0,30.13,NNE,30,2.0,7.0,82,0.00,,,0.00,weatherlink.com 1.10,2013-01-21 10:49:00,
2013-01-21 03:04:00,42.2,35.0,30.14,NNE,29,1.0,4.0,77,0.00,,,0.00,weatherlink.com 1.10,2013-01-21 11:04:00,
2013-01-21 03:19:00,40.4,34.0,30.14,NNE,17,6.0,8.0,79,0.00,,,0.00,weatherlink.com 1.10,2013-01-21 11:19:00,
2013-01-21 03:34:00,39.6,34.0,30.14,North,5,7.0,9.0,81,0.00,,,0.00,weatherlink.com 1.10,2013-01-21 11:34:00,
2013-01-21 03:49:00,40.4,34.0,30.14,NNE,17,6.0,8.0,79,0.00,,,0.00,weatherlink.com 1.10,2013-01-21 11:49:00,
2013-01-21 04:04:00,40.4,34.0,30.14,NNE,15,6.0,7.0,78,0.00,,,0.00,weatherlink.com 1.10,2013-01-21 12:04:00,
2013-01-21 04:19:00,39.4,34.0,30.13,NNE,20,7.0,9.0,80,0.00,,,0.00,weatherlink.com 1.10,2013-01-21 12:19:00,
2013-01-21 04:34:00,37.9,33.0,30.12,NNE,21,7.0,9.0,83,0.00,,,0.00,weatherlink.com 1.10,2013-01-21 12:34:00,
2013-01-21 04:49:00,36.9,33.0,30.11,NNE,26,6.0,9.0,85,0.00,,,0.00,weatherlink.com 1.10,2013-01-21 12:49:00,
2013-01-21 05:04:00,35.9,33.0,30.11,NNE,28,3.0,9.0,88,0.00,,,0.00,weatherlink.com 1.10,2013-01-21 13:04:00,
2013-01-21 05:19:00,37.4,33.0,30.10,NNE,23,5.0,7.0,85,0.00,,,0.00,weatherlink.com 1.10,2013-01-21 13:19:00,
2013-01-21 05:34:00,38.4,33.0,30.11,NNE,17,6.0,7.0,82,0.00,,,0.00,weatherlink.com 1.10,2013-01-21 13:34:00,
2013-01-21 05:49:00,39.3,33.0,30.10,NNE,24,7.0,8.0,78,0.00,,,0.00,weatherlink.com 1.10,2013-01-21 13:49:00,
2013-01-21 06:04:00,36.8,32.0,30.10,NNE,23,5.0,10.0,84,0.00,,,0.00,weatherlink.com 1.10,2013-01-21 14:04:00,
2013-01-21 06:19:00,36.4,33.0,30.11,NNE,25,6.0,8.0,86,0.00,,,0.00,weatherlink.com 1.10,2013-01-21 14:19:00,
2013-01-21 06:34:00,37.2,33.0,30.11,NNE,17,6.0,8.0,84,0.00,,,0.00,weatherlink.com 1.10,2013-01-21 14:34:00,
2013-01-21 06:49:00,37.9,33.0,30.12,NNE,28,3.0,10.0,81,0.00,,,0.00,weatherlink.com 1.10,2013-01-21 14:49:00,
2013-01-21 07:04:00,37.9,33.0,30.12,NNE,26,4.0,9.0,82,0.00,,,0.00,weatherlink.com 1.10,2013-01-21 15:04:00,
2013-01-21 07:19:00,37.4,33.0,30.12,NNE,26,4.0,8.0,83,0.00,,,0.00,weatherlink.com 1.10,2013-01-21 15:19:00,
2013-01-21 07:34:00,37.9,33.0,30.13,NNE,20,4.0,8.0,81,0.00,,,0.00,weatherlink.com 1.10,2013-01-21 15:34:00,
2013-01-21 07:49:00,36.1,32.0,30.14,NNE,21,7.0,11.0,85,0.00,,,0.00,weatherlink.com 1.10,2013-01-21 15:49:00,
2013-01-21 08:04:00,37.9,33.0,30.15,NNE,17,4.0,6.0,82,0.00,,,0.00,weatherlink.com 1.10,2013-01-21 16:04:00,
2013-01-21 08:19:00,39.4,33.0,30.15,NNE,19,5.0,7.0,78,0.00,,,0.00,weatherlink.com 1.10,2013-01-21 16:19:00,
2013-01-21 08:34:00,38.7,33.0,30.15,NNE,14,4.0,7.0,79,0.00,,,0.00,weatherlink.com 1.10,2013-01-21 16:34:00,
2013-01-21 08:49:00,37.9,33.0,30.16,NNE,14,5.0,7.0,83,0.00,,,0.00,weatherlink.com 1.10,2013-01-21 16:49:00,
2013-01-21 09:04:00,38.3,33.0,30.17,NNE,19,5.0,6.0,82,0.00,,,0.00,weatherlink.com 1.10,2013-01-21 17:04:00,
2013-01-21 09:19:00,41.0,35.0,30.17,North,11,4.0,6.0,78,0.00,,,0.00,weatherlink.com 1.10,2013-01-21 17:19:00,
2013-01-21 09:34:00,42.9,35.0,30.18,NNE,14,3.0,6.0,74,0.00,,,0.00,weatherlink.com 1.10,2013-01-21 17:34:00,
2013-01-21 09:49:00,44.0,36.0,30.18,NNE,22,2.0,5.0,74,0.00,,,0.00,weatherlink.com 1.10,2013-01-21 17:49:00,
2013-01-21 10:05:00,45.3,37.0,30.18,NNE,19,3.0,4.0,74,0.00,,,0.00,weatherlink.com 1.10,2013-01-21 18:05:00,
2013-01-21 10:20:00,46.9,38.0,30.18,NNE,31,1.0,3.0,71,0.00,,,0.00,weatherlink.com 1.10,2013-01-21 18:20:00,
2013-01-21 10:35:00,48.8,40.0,30.18,NNE,24,1.0,3.0,72,0.00,,,0.00,weatherlink.com 1.10,2013-01-21 18:35:00,
2013-01-21 10:50:00,50.8,41.0,30.17,NNE,19,1.0,3.0,69,0.00,,,0.00,weatherlink.com 1.10,2013-01-21 18:50:00,
2013-01-21 11:05:00,53.0,43.0,30.17,NNE,22,1.0,2.0,69,0.00,,,0.00,weatherlink.com 1.10,2013-01-21 19:05:00,
2013-01-21 11:20:00,54.9,44.0,30.16,NNE,18,0.0,2.0,66,0.00,,,0.00,weatherlink.com 1.10,2013-01-21 19:20:00,
2013-01-21 11:35:00,59.3,46.0,30.15,WSW,238,1.0,1.0,61,0.00,,,0.00,weatherlink.com 1.10,2013-01-21 19:35:00,
2013-01-21 11:50:00,62.0,38.0,30.15,SW,223,3.0,4.0,42,0.00,,,0.00,weatherlink.com 1.10,2013-01-21 19:50:00,
2013-01-21 12:05:00,58.5,39.0,30.16,SSW,213,5.0,9.0,48,0.00,,,0.00,weatherlink.com 1.10,2013-01-21 20:05:00,
2013-01-21 12:20:00,56.8,41.0,30.16,SW,231,1.0,7.0,55,0.00,,,0.00,weatherlink.com 1.10,2013-01-21 20:20:00,
2013-01-21 12:35:00,59.4,40.0,30.15,SSW,212,2.0,3.0,49,0.00,,,0.00,weatherlink.com 1.10,2013-01-21 20:35:00,
2013-01-21 12:50:00,62.3,43.0,30.14,South,182,0.0,2.0,50,0.00,,,0.00,weatherlink.com 1.10,2013-01-21 20:50:00,
2013-01-21 13:05:00,61.6,42.0,30.13,SW,221,1.0,4.0,49,0.00,,,0.00,weatherlink.com 1.10,2013-01-21 21:05:00,
2013-01-21 13:20:00,58.5,42.0,30.13,SSW,207,1.0,6.0,55,0.00,,,0.00,weatherlink.com 1.10,2013-01-21 21:20:00,
2013-01-21 13:35:00,60.2,42.0,30.12,SW,218,3.0,5.0,51,0.00,,,0.00,weatherlink.com 1.10,2013-01-21 21:35:00,
2013-01-21 13:50:00,61.4,41.0,30.11,SSW,194,3.0,4.0,47,0.00,,,0.00,weatherlink.com 1.10,2013-01-21 21:50:00,
2013-01-21 14:05:00,62.5,44.0,30.11,SSW,209,0.0,3.0,51,0.00,,,0.00,weatherlink.com 1.10,2013-01-21 22:05:00,
2013-01-21 14:20:00,64.8,42.0,30.11,SSW,203,3.0,4.0,43,0.00,,,0.00,weatherlink.com 1.10,2013-01-21 22:20:00,
2013-01-21 14:35:00,64.7,42.0,30.09,SSW,212,2.0,4.0,43,0.00,,,0.00,weatherlink.com 1.10,2013-01-21 22:35:00,
2013-01-21 14:50:00,63.5,39.0,30.09,SSW,209,3.0,5.0,40,0.00,,,0.00,weatherlink.com 1.10,2013-01-21 22:50:00,
2013-01-21 15:05:00,63.4,36.0,30.09,SSW,199,3.0,4.0,36,0.00,,,0.00,weatherlink.com 1.10,2013-01-21 23:05:00,
2013-01-21 15:20:00,63.0,35.0,30.09,SSW,213,3.0,5.0,36,0.00,,,0.00,weatherlink.com 1.10,2013-01-21 23:20:00,
2013-01-21 15:35:00,63.6,35.0,30.08,SW,220,1.0,4.0,35,0.00,,,0.00,weatherlink.com 1.10,2013-01-21 23:35:00,
2013-01-21 15:50:00,66.0,35.0,30.08,SW,223,2.0,2.0,32,0.00,,,0.00,weatherlink.com 1.10,2013-01-21 23:50:00,
2013-01-21 16:06:00,65.2,37.0,30.08,SSW,209,0.0,3.0,35,0.00,,,0.00,weatherlink.com 1.10,2013-01-22 00:06:00,
2013-01-21 16:21:00,64.5,39.0,30.07,NNE,20,0.0,2.0,39,0.00,,,0.00,weatherlink.com 1.10,2013-01-22 00:21:00,
2013-01-21 16:36:00,61.1,38.0,30.06,NNE,17,1.0,1.0,42,0.00,,,0.00,weatherlink.com 1.10,2013-01-22 00:36:00,
2013-01-21 16:51:00,59.8,39.0,30.06,NNE,15,0.0,1.0,46,0.00,,,0.00,weatherlink.com 1.10,2013-01-22 00:51:00,
2013-01-21 17:06:00,58.6,37.0,30.06,NNE,16,0.0,1.0,45,0.00,,,0.00,weatherlink.com 1.10,2013-01-22 01:06:00,
2013-01-21 17:21:00,57.1,36.0,30.06,NNE,23,0.0,3.0,46,0.00,,,0.00,weatherlink.com 1.10,2013-01-22 01:21:00,
2013-01-21 17:36:00,56.7,42.0,30.06,NNE,22,2.0,4.0,58,0.00,,,0.00,weatherlink.com 1.10,2013-01-22 01:36:00,
2013-01-21 17:51:00,56.1,42.0,30.07,North,5,0.0,3.0,59,0.00,,,0.00,weatherlink.com 1.10,2013-01-22 01:51:00,
2013-01-21 18:06:00,55.2,44.0,30.07,NNE,21,3.0,3.0,65,0.00,,,0.00,weatherlink.com 1.10,2013-01-22 02:06:00,
2013-01-21 18:21:00,54.6,45.0,30.08,NNE,22,1.0,3.0,69,0.00,,,0.00,weatherlink.com 1.10,2013-01-22 02:21:00,
2013-01-21 18:36:00,54.3,44.0,30.09,NNE,24,1.0,4.0,69,0.00,,,0.00,weatherlink.com 1.10,2013-01-22 02:36:00,
2013-01-21 18:51:00,53.9,44.0,30.09,NNE,19,1.0,4.0,70,0.00,,,0.00,weatherlink.com 1.10,2013-01-22 02:51:00,
2013-01-21 19:06:00,52.6,44.0,30.09,NNE,26,1.0,5.0,72,0.00,,,0.00,weatherlink.com 1.10,2013-01-22 03:06:00,
2013-01-21 19:21:00,52.6,43.0,30.09,NNE,20,1.0,4.0,69,0.00,,,0.00,weatherlink.com 1.10,2013-01-22 03:21:00,
2013-01-21 19:36:00,52.0,42.0,30.10,North,360,0.0,2.0,70,0.00,,,0.00,weatherlink.com 1.10,2013-01-22 03:36:00,
2013-01-21 19:51:00,51.5,43.0,30.10,NNE,22,0.0,3.0,73,0.00,,,0.00,weatherlink.com 1.10,2013-01-22 03:51:00,
2013-01-21 20:06:00,50.1,43.0,30.11,NNE,28,0.0,4.0,76,0.00,,,0.00,weatherlink.com 1.10,2013-01-22 04:06:00,
2013-01-21 20:21:00,49.1,43.0,30.11,NNE,21,0.0,6.0,78,0.00,,,0.00,weatherlink.com 1.10,2013-01-22 04:21:00,
2013-01-21 20:36:00,47.6,42.0,30.12,NNE,19,5.0,7.0,82,0.00,,,0.00,weatherlink.com 1.10,2013-01-22 04:36:00,
2013-01-21 20:51:00,47.8,42.0,30.12,NNE,25,5.0,7.0,79,0.00,,,0.00,weatherlink.com 1.10,2013-01-22 04:51:00,
2013-01-21 21:06:00,46.5,42.0,30.12,NNE,32,1.0,7.0,83,0.00,,,0.00,weatherlink.com 1.10,2013-01-22 05:06:00,
2013-01-21 21:21:00,45.4,41.0,30.11,North,11,8.0,11.0,84,0.00,,,0.00,weatherlink.com 1.10,2013-01-22 05:21:00,
2013-01-21 21:36:00,48.5,41.0,30.11,NNE,25,7.0,16.0,75,0.00,,,0.00,weatherlink.com 1.10,2013-01-22 05:36:00,
2013-01-21 21:51:00,46.8,40.0,30.12,NNE,30,6.0,8.0,77,0.00,,,0.00,weatherlink.com 1.10,2013-01-22 05:51:00,
2013-01-21 22:06:00,45.9,40.0,30.11,NNE,25,4.0,10.0,79,0.00,,,0.00,weatherlink.com 1.10,2013-01-22 06:06:00,
2013-01-21 22:21:00,45.3,40.0,30.12,ENE,60,0.0,8.0,80,0.00,,,0.00,weatherlink.com 1.10,2013-01-22 06:21:00,
2013-01-21 22:36:00,45.0,39.0,30.12,NNE,26,0.0,8.0,80,0.00,,,0.00,weatherlink.com 1.10,2013-01-22 06:36:00,
2013-01-21 22:51:00,46.0,39.0,30.12,NNE,30,0.0,10.0,76,0.00,,,0.00,weatherlink.com 1.10,2013-01-22 06:51:00,
2013-01-21 23:06:00,44.6,38.0,30.11,NNE,17,4.0,8.0,79,0.00,,,0.00,weatherlink.com 1.10,2013-01-22 07:06:00,
2013-01-21 23:21:00,44.6,38.0,30.10,NNE,18,4.0,10.0,78,0.00,,,0.00,weatherlink.com 1.10,2013-01-22 07:21:00,
2013-01-21 23:36:00,45.7,38.0,30.09,North,360,6.0,13.0,74,0.00,,,0.00,weatherlink.com 1.10,2013-01-22 07:36:00,
2013-01-21 23:51:00,46.4,38.0,30.09,NNE,31,2.0,11.0,72,0.00,,,0.00,weatherlink.com 1.10,2013-01-22 07:51:00,